Station BZBM3 - 8447930 - Woods Hole, MA Image indicating link to RSS feed of recent meteorological observations for station BZBM3


Conditions at BZBM3 as of
(12:00 pm EDT)
1600 GMT on 05/28/2024:
     

Click on the graph icon in the table below to see a time series plot of the last five days of that observation.

5-day plot - Atmospheric Pressure Atmospheric Pressure (PRES):29.71 in
5-day plot - Pressure Tendency Pressure Tendency (PTDY):+0.00 in ( Steady )
5-day plot - Air Temperature Air Temperature (ATMP): 61.7 °F
5-day plot - Water Temperature Water Temperature (WTMP): 59.9 °F
NOS Water Level Observation Network Water Level
Previous observations
TIME
(EDT)
5-day plot - Wind Direction
WDIR
 
5-day plot - Wind Speed
WSPD
kts
5-day plot - Wind Gust
GST
kts
5-day plot - Wave Height
WVHT
ft
5-day plot - Dominant Wave Period
DPD
sec
5-day plot - Average Wave Period
APD
sec
5-day plot - Mean Wave Direction
MWD
 
5-day plot - Atmospheric Pressure
PRES
in
5-day plot - Pressure Tendency
PTDY
in
5-day plot - Air Temperature
ATMP
°F
5-day plot - Water Temperature
WTMP
°F
5-day plot - Dew Point
DEWP
°F
5-day plot - Salinity
SAL
psu
5-day plot - Visibility
VIS
nmi
5-day plot - Tide (above MLLW)
TIDE
ft
2024-05-28 11:54 am-------29.71- 61.5 60.1----
2024-05-28 11:48 am-------29.71- 61.3 60.1----
2024-05-28 11:42 am-------29.71- 61.5 60.1----
2024-05-28 11:36 am-------29.71- 61.5 60.1----
2024-05-28 11:30 am-------29.70- 61.5 60.1----
2024-05-28 11:24 am-------29.70- 61.5 60.1----
2024-05-28 11:18 am-------29.70- 61.7 60.1----
2024-05-28 11:12 am-------29.70- 61.9 60.1----
2024-05-28 11:06 am-------29.70- 61.5 60.1----
2024-05-28 11:00 am-------29.70+0.00 61.7 60.3----
2024-05-28 10:54 am-------29.70- 61.5 60.3----
2024-05-28 10:48 am-------29.70- 61.7 60.3----
2024-05-28 10:42 am-------29.70- 61.7 60.1----
2024-05-28 10:36 am-------29.70- 61.2 60.1----
2024-05-28 10:30 am-------29.70- 61.3 60.1----
2024-05-28 10:24 am-------29.70- 61.3 60.1----
2024-05-28 10:18 am-------29.70- 61.5 60.1----
2024-05-28 10:12 am-------29.70- 61.2 60.1----
2024-05-28 10:06 am-------29.69- 61.2 60.1----
2024-05-28 10:00 am-------29.69-0.01 61.0 60.1----
2024-05-28 09:54 am-------29.69- 61.0 60.1----
2024-05-28 09:48 am-------29.69- 60.6 60.1----
2024-05-28 09:42 am-------29.69- 60.8 60.1----
2024-05-28 09:36 am-------29.70- 60.6 60.1----
2024-05-28 09:30 am-------29.70- 60.4 60.1----
2024-05-28 09:24 am-------29.70- 60.4 60.1----
2024-05-28 09:18 am-------29.70- 60.4 60.1----
2024-05-28 09:12 am-------29.70- 60.6 60.1----
2024-05-28 09:06 am-------29.70- 60.4 59.9----
2024-05-28 09:00 am-------29.70+0.01 60.6 59.9----
2024-05-28 08:54 am-------29.70- 60.6 59.9----
2024-05-28 08:48 am-------29.70- 60.6 59.7----
2024-05-28 08:42 am-------29.71- 60.6 59.7----
2024-05-28 08:36 am-------29.70- 60.6 59.9----
2024-05-28 08:30 am-------29.70- 60.6 59.9----
2024-05-28 08:24 am-------29.71- 61.0 59.7----
2024-05-28 08:18 am-------29.71- 61.0 59.7----
2024-05-28 08:12 am-------29.71- 61.2 59.7----
2024-05-28 08:06 am-------29.70- 61.3 59.7----
2024-05-28 08:00 am-------29.70+0.00 61.3 59.7----
2024-05-28 07:54 am-------29.70- 61.5 59.7----
2024-05-28 07:48 am-------29.70- 61.0 59.9----
2024-05-28 07:42 am-------29.70- 61.5 59.9----
2024-05-28 07:36 am-------29.70- 62.1 59.9----
2024-05-28 07:30 am-------29.70- 62.2 59.9----
2024-05-28 07:24 am-------29.71- 61.9 59.7----
2024-05-28 07:18 am-------29.71- 61.9 59.7----
2024-05-28 07:12 am-------29.70- 61.9 59.7----
2024-05-28 07:06 am-------29.70- 61.7 60.1----
2024-05-28 07:00 am-------29.70+0.00 61.7 60.4----
2024-05-28 06:54 am-------29.70- 61.7 60.1----
2024-05-28 06:48 am-------29.69- 62.1 59.7----
2024-05-28 06:42 am-------29.69- 62.1 59.9----
2024-05-28 06:36 am-------29.69- 62.1 59.7----
2024-05-28 06:30 am-------29.69- 61.7 59.5----
2024-05-28 06:24 am-------29.68- 62.1 59.7----
2024-05-28 06:18 am-------29.69- 61.9 59.5----
2024-05-28 06:12 am-------29.69- 61.9 59.5----
2024-05-28 06:06 am-------29.69- 61.3 59.7----
2024-05-28 06:00 am-------29.69-0.03 61.3 59.7----
2024-05-28 05:54 am-------29.69- 61.7 59.9----
2024-05-28 05:48 am-------29.69- 62.2 59.9----
2024-05-28 05:42 am-------29.69- 63.7 59.7----
2024-05-28 05:36 am-------29.69- 63.3 59.5----
2024-05-28 05:30 am-------29.69- 64.4 59.7----
2024-05-28 05:24 am-------29.70- 64.9 60.4----
2024-05-28 05:18 am-------29.70- 64.0 59.7----
2024-05-28 05:12 am-------29.70- 62.8 59.5----
2024-05-28 05:06 am-------29.71- 63.1 59.7----
2024-05-28 05:00 am-------29.70-0.03 63.3 60.1----
2024-05-28 04:54 am-------29.70- 63.7 60.1----
2024-05-28 04:48 am-------29.71- 64.0 59.7----
2024-05-28 04:42 am-------29.71- 64.0 59.7----
2024-05-28 04:36 am-------29.69- 64.2 59.5----
2024-05-28 04:30 am-------29.71- 64.6 59.4----
2024-05-28 04:24 am-------29.71- 64.2 59.4----
2024-05-28 04:18 am-------29.71- 63.9 59.5----
2024-05-28 04:12 am-------29.71- 64.2 59.5----
2024-05-28 04:06 am-------29.70- 63.9 59.7----
2024-05-28 04:00 am-------29.70-0.08 63.9 59.4----
2024-05-28 03:54 am-------29.70- 63.0 59.2----
2024-05-28 03:48 am-------29.69- 63.3 59.4----
2024-05-28 03:42 am-------29.70- 63.3 59.4----
2024-05-28 03:36 am-------29.71- 63.5 59.5----
2024-05-28 03:30 am-------29.71- 64.4 59.5----
2024-05-28 03:24 am-------29.71- 64.2 59.4----
2024-05-28 03:18 am-------29.72- 64.0 59.4----
2024-05-28 03:12 am-------29.71- 64.9 59.4----
2024-05-28 03:06 am-------29.72- 64.6 59.5----
2024-05-28 03:00 am-------29.72-0.08 64.6 59.5----
2024-05-28 02:54 am-------29.71- 64.9 59.7----
2024-05-28 02:48 am-------29.71- 64.4 59.5----
2024-05-28 02:42 am-------29.72- 64.4 59.7----
2024-05-28 02:36 am-------29.73- 64.0 60.1----
2024-05-28 02:30 am-------29.74- 63.5 59.5----
2024-05-28 02:24 am-------29.73- 63.1 59.5----
2024-05-28 02:18 am-------29.73- 63.9 59.7----
2024-05-28 02:12 am-------29.73- 63.9 59.7----
2024-05-28 02:06 am-------29.73- 62.6 59.7----
2024-05-28 02:00 am-------29.73-0.07 62.6 59.9----
2024-05-28 01:54 am-------29.74- 63.5 59.9----
2024-05-28 01:48 am-------29.74- 63.1 60.1----
2024-05-28 01:42 am-------29.75- 62.8 59.7----
2024-05-28 01:36 am-------29.76- 62.1 59.9----
2024-05-28 01:30 am-------29.76- 61.9 59.7----
2024-05-28 01:24 am-------29.76- 61.9 59.5----
2024-05-28 01:18 am-------29.75- 62.6 59.5----
2024-05-28 01:12 am-------29.76- 62.4 59.5----
2024-05-28 01:06 am-------29.77- 62.2 59.5----
2024-05-28 01:00 am-------29.78-0.04 63.0 59.7----
2024-05-28 12:54 am-------29.77- 63.1 59.7----
2024-05-28 12:48 am-------29.78- 63.1 59.5----
2024-05-28 12:42 am-------29.79- 63.0 59.7----
2024-05-28 12:36 am-------29.78- 63.1 59.7----
2024-05-28 12:30 am-------29.79- 63.1 59.7----
2024-05-28 12:24 am-------29.79- 63.0 59.9----
2024-05-28 12:18 am-------29.79- 63.5 59.9----
2024-05-28 12:12 am-------29.79- 63.9 59.9----
2024-05-28 12:06 am-------29.79- 63.5 59.9----
2024-05-28 12:00 am-------29.79-0.02 63.1 59.9----
2024-05-27 11:54 pm-------29.81- 62.8 59.9----
2024-05-27 11:48 pm-------29.81- 63.3 59.9----
2024-05-27 11:42 pm-------29.81- 64.0 59.9----
2024-05-27 11:36 pm-------29.80- 64.4 59.9----
2024-05-27 11:30 pm-------29.80- 64.4 59.9----
2024-05-27 11:24 pm-------29.80- 64.8 59.9----
2024-05-27 11:18 pm-------29.80- 64.8 59.7----
2024-05-27 11:12 pm-------29.80- 64.9 59.9----
2024-05-27 11:06 pm-------29.80- 64.6 59.9----
2024-05-27 11:00 pm-------29.80-0.02 64.6 59.9----
2024-05-27 10:54 pm-------29.80- 64.4 59.9----
2024-05-27 10:48 pm-------29.81- 65.1 59.9----
2024-05-27 10:42 pm-------29.81- 64.9 60.1----
2024-05-27 10:36 pm-------29.81- 65.1 60.1----
2024-05-27 10:30 pm-------29.81- 65.1 60.1----
2024-05-27 10:24 pm-------29.81- 64.8 60.1----
2024-05-27 10:18 pm-------29.81- 64.9 60.3----
2024-05-27 10:12 pm-------29.81- 65.3 60.3----
2024-05-27 10:06 pm-------29.81- 65.3 60.3----
2024-05-27 10:00 pm-------29.81-0.05 65.1 60.4----
2024-05-27 09:54 pm-------29.81- 65.1 60.4----
2024-05-27 09:48 pm-------29.81- 65.5 59.9----
2024-05-27 09:42 pm-------29.81- 65.3 59.9----
2024-05-27 09:36 pm-------29.81- 65.3 59.9----
2024-05-27 09:30 pm-------29.82- 65.3 59.9----
2024-05-27 09:24 pm-------29.82- 65.3 59.9----
2024-05-27 09:18 pm-------29.81- 64.9 59.9----
2024-05-27 09:12 pm-------29.81- 65.1 59.9----
2024-05-27 09:06 pm-------29.82- 65.3 59.9----
2024-05-27 09:00 pm-------29.82- 64.8 59.9----
2024-05-27 08:54 pm-------29.82- 64.9 59.9----
2024-05-27 08:48 pm-------29.81- 64.8 59.9----
2024-05-27 08:42 pm-------29.82- 64.6 59.9----
2024-05-27 08:36 pm-------29.81- 64.8 59.9----
2024-05-27 08:30 pm-------29.82- 64.6 59.9----
2024-05-27 08:24 pm-------29.82- 64.6 59.9----
2024-05-27 08:18 pm-------29.82- 64.8 59.9----
2024-05-27 08:12 pm-------29.82- 64.6 59.9----
2024-05-27 08:06 pm-------29.82- 64.4 59.9----
2024-05-27 08:00 pm-------29.82-0.07 64.6 60.1----
2024-05-27 07:54 pm-------29.83- 64.6 60.1----
2024-05-27 07:48 pm-------29.83-- 60.1----
2024-05-27 07:42 pm-------29.84-- 60.1----
2024-05-27 07:36 pm-------29.85-- 60.1----
2024-05-27 07:30 pm-------29.85- 65.1 60.3----
2024-05-27 07:24 pm-------29.85- 65.1 60.1----
2024-05-27 07:18 pm-------29.85- 65.1 59.7----
2024-05-27 07:12 pm-------29.86- 65.3 59.7----
2024-05-27 07:06 pm-------29.86- 65.3 59.7----
2024-05-27 07:00 pm-------29.86-0.05 65.3 59.7----
2024-05-27 06:54 pm-------29.86- 65.5 59.7----
2024-05-27 06:48 pm-------29.87- 65.7 59.7----
2024-05-27 06:42 pm-------29.87- 65.8 59.7----
2024-05-27 06:36 pm-------29.87- 66.0 59.7----
2024-05-27 06:30 pm-------29.88- 66.2 59.7----
2024-05-27 06:24 pm-------29.88- 66.4 59.7----
2024-05-27 06:18 pm-------29.88- 66.4 59.7----
2024-05-27 06:12 pm-------29.88- 66.6 59.7----
2024-05-27 06:06 pm-------29.88- 66.7 59.9----
2024-05-27 06:00 pm--------- 67.1 59.9----
2024-05-27 05:54 pm--------- 67.3 60.1----
2024-05-27 05:48 pm-------29.88- 67.3 59.9----
2024-05-27 05:42 pm-------29.88- 66.9 59.9----
2024-05-27 05:36 pm-------29.88- 66.9 59.9----
2024-05-27 05:30 pm-------29.88-- 59.9----
2024-05-27 05:24 pm-------29.88-- 59.7----
2024-05-27 05:18 pm-------29.89- 67.8 59.7----
2024-05-27 05:12 pm-------29.89- 68.0 59.7----
2024-05-27 05:06 pm-------29.90- 68.2 59.7----
2024-05-27 05:00 pm-------29.90-0.05 68.5 59.7----
2024-05-27 04:54 pm-------29.90- 68.9 59.7----
2024-05-27 04:48 pm-------29.90- 68.4 59.5----
2024-05-27 04:42 pm-------29.90- 68.7 59.5----
2024-05-27 04:36 pm-------29.90- 69.1 59.5----
2024-05-27 04:30 pm-------29.90- 69.4 59.5----
2024-05-27 04:24 pm-------29.90- 69.8 59.5----
2024-05-27 04:18 pm-------29.91- 69.3 59.5----
2024-05-27 04:12 pm-------29.91- 69.4 59.5----
2024-05-27 04:06 pm-------29.91- 69.4 59.5----
2024-05-27 04:00 pm-------29.91-0.06 69.8 59.5----
2024-05-27 03:54 pm-------29.91- 69.3 59.5----
2024-05-27 03:48 pm--------- 69.6 59.5----
2024-05-27 03:42 pm--------- 69.8 59.5----
2024-05-27 03:36 pm--------- 70.7 59.5----
2024-05-27 03:30 pm-------29.92- 70.7 59.7----
2024-05-27 03:24 pm-------29.92- 70.2 59.7----
2024-05-27 03:18 pm-------29.93- 70.5 59.7----
2024-05-27 03:12 pm-------29.93- 70.7 59.5----
2024-05-27 03:06 pm-------29.93- 71.1 59.5----
2024-05-27 03:00 pm-------29.93-0.06 70.2 59.5----
2024-05-27 02:54 pm-------29.93- 70.3 59.5----
2024-05-27 02:48 pm-------29.93- 70.7 59.5----
2024-05-27 02:42 pm-------29.93- 70.7 59.5----
2024-05-27 02:36 pm-------29.93- 70.7 59.5----
2024-05-27 02:30 pm-------29.93- 70.9 59.4----
2024-05-27 02:24 pm-------29.94- 70.7 59.4----
2024-05-27 02:18 pm-------29.94- 70.3 59.4----
2024-05-27 02:12 pm-------29.94- 70.0 59.4----
2024-05-27 02:06 pm-------29.94- 69.6 59.4----
2024-05-27 02:00 pm-------29.95-0.05 69.1 59.5----
2024-05-27 01:54 pm-------29.95- 69.3 59.7----
2024-05-27 01:48 pm-------29.95-- 59.9----
2024-05-27 01:42 pm-------29.96-- 59.9----
2024-05-27 01:36 pm-------29.96-- 59.9----
2024-05-27 01:30 pm-------29.96- 68.5 60.1----
2024-05-27 01:24 pm-------29.97- 66.9 59.9----
2024-05-27 01:18 pm-------29.97- 65.3 59.9----
2024-05-27 01:12 pm-------29.97- 64.4 60.3----
2024-05-27 01:06 pm-------29.98- 63.7 60.4----
2024-05-27 01:00 pm-------29.98-0.02 63.3 59.9----
2024-05-27 12:54 pm-------29.98- 63.0 59.9----
2024-05-27 12:48 pm-------29.98- 62.6 60.1----
2024-05-27 12:42 pm-------29.98- 62.2 59.9----
2024-05-27 12:36 pm-------29.98- 62.1 59.9----
2024-05-27 12:30 pm-------29.98- 61.9 59.9----
2024-05-27 12:24 pm-------29.98- 61.5 59.9----
2024-05-27 12:18 pm-------29.98- 61.0 60.1----
2024-05-27 12:12 pm-------29.98- 61.2 60.1----
2024-05-27 12:06 pm-------29.98- 61.7 60.1----
2024-05-27 12:00 pm-------29.98-0.01 61.7 59.9----
2024-05-27 11:54 am-------29.98- 62.2 59.9----